Flag for Uzbekistan Weather past 2 weeks in Tashkent, Uzbekistan

Now
59 °F

Clear.


Feels Like: 59 °F
Forecast: 43 / 60 °F
Wind: 2 mph from North

Location: Tashkent

Current Time: Mar 5, 2015 at 1:23:15 PM

Latest Report: Mar 5, 2015 at 12:30 PM


Visibility: 3 mi

Pressure: 30.04 "Hg

Humidity: 45%

Dew point: 37 °F

Location of TashkentLocation

Historic Weather in Tashkent — Graph

°F

Tashkent temperature yesterday

Maximum temperature yesterday: 61 °F (at 3:00 PM)
Minimum temperature yesterday: 39 °F (at 5:00 AM)
Average temperature yesterday: 50 °F

Past Weeks' High & Low Weather Summary

 TemperatureHumidityPressure
High61 °F (Mar 4, 3:00 PM)100% (Feb 21, 11:30 PM)30.42 "Hg (Feb 21, 11:30 PM)
Low32 °F (Feb 25, 5:30 AM)27% (Feb 20, 3:30 PM)29.86 "Hg (Feb 23, 11:00 AM)
Average45 °F71%30.09 "Hg
* Reported Feb 18 12:00 Noon — Mar 5 12:00 Noon, Tashkent, Weather by CustomWeather, © 2015

Note: Actual official high and low records may vary slightly from our data, if they occured in-between our weather recording intervals... More about our weather records

Advertising

Tashkent weather history for previous 24 hours

 ConditionsComfort  
Time TempWeatherWind HumidityBarometerVisibility
12:00 PM
Thu, Mar 5
57 °FClear.3 mph48%30.07 "Hg3 mi
11:30 AM55 °FClear.3 mph51%30.07 "Hg3 mi
11:00 AM55 °FClear.1 mph55%30.07 "Hg3 mi
10:30 AM55 °FClear.2 mph55%30.07 "Hg4 mi
10:00 AM52 °FClear.5 mph58%30.07 "Hg4 mi
9:30 AM50 °FClear.3 mph58%30.07 "Hg4 mi
9:00 AM46 °FClear.2 mph66%30.07 "Hg4 mi
8:30 AM45 °FSunny.6 mph66%30.07 "Hg10 mi
8:00 AM45 °FSunny.2 mph61%30.07 "Hg10 mi
7:00 AM43 °FSunny.5 mph66%30.04 "Hg10 mi
6:30 AM43 °FPassing clouds.5 mph66%30.04 "HgN/A
6:00 AM45 °FClear.6 mph61%30.04 "Hg10 mi
5:30 AM43 °FClear.7 mph66%30.04 "Hg2 mi
5:00 AM43 °FClear.7 mph71%30.01 "Hg2 mi
4:30 AM43 °FClear.7 mph66%30.01 "Hg2 mi
4:00 AM43 °FClear.7 mph66%30.01 "Hg2 mi
3:30 AM45 °FClear.6 mph66%30.01 "Hg2 mi
3:00 AM46 °FClear.6 mph62%30.01 "Hg2 mi
2:00 AM46 °FFog.6 mph71%30.01 "Hg2 mi
1:30 AM45 °FFog.5 mph76%30.01 "Hg2 mi
1:00 AM45 °FFog.7 mph76%30.01 "Hg2 mi
12:30 AM46 °FClear.5 mph66%30.01 "Hg2 mi
12:00 AM48 °FClear.5 mph62%30.01 "Hg2 mi
11:30 PM
Wed, Mar 4
48 °FClear.No wind62%30.01 "Hg2 mi
11:00 PM50 °FClear.No wind54%30.01 "Hg2 mi
10:30 PM50 °FClear.2 mph54%30.01 "Hg2 mi
10:00 PM52 °FClear.No wind50%30.01 "Hg2 mi
9:30 PM52 °FClear.3 mph50%30.01 "Hg2 mi
9:00 PM54 °FClear.3 mph51%30.01 "Hg2 mi
8:30 PM52 °FClear.3 mph54%29.98 "Hg2 mi
8:00 PM54 °FClear.5 mph51%29.98 "Hg10 mi
7:30 PM55 °FPassing clouds.5 mph47%29.98 "HgN/A
7:00 PM55 °FClear.6 mph44%29.98 "Hg10 mi
6:30 PM55 °FClear.6 mph44%29.98 "Hg10 mi
6:00 PM57 °FClear.7 mph41%29.95 "Hg4 mi
5:30 PM57 °FClear.8 mph41%29.95 "Hg4 mi
5:00 PM59 °FClear.8 mph42%29.95 "Hg4 mi
4:30 PM59 °FClear.7 mph39%29.95 "Hg4 mi
4:00 PM59 °FClear.8 mph42%29.95 "Hg4 mi
3:30 PM59 °FClear.9 mph45%29.95 "Hg4 mi
3:00 PM61 °FClear.6 mph39%29.95 "Hg4 mi
2:30 PM59 °FClear.3 mph42%29.95 "Hg4 mi
2:00 PM59 °FClear.5 mph42%29.95 "Hg4 mi
1:30 PM57 °FClear.6 mph41%29.95 "Hg4 mi
1:00 PM59 °FClear.5 mph48%29.98 "Hg4 mi
Weather by CustomWeather, © 2015

See weather overviewHow to use our weather pages